Showing default

YAOGAN-30 J, 43083

Orbit data source: Space-Track

YAOGAN-30 J, 43083 is a payload satellite owned by PLA SSF (CN) in LEO that was launched on Mon, 25 Dec 2017 UTC via a CHANG ZHENG 2C launch vehicle from the Xichang Space Center, China (XSC). Payload-class satellites include a variety of spacecraft equipped with specific instruments for various scientific and technological missions. These include communications satellites like Starlink; space stations such as the ISS; scientific satellites like the Hubble; Earth observation satellites from companies like Planet Labs, Umbra, and HawkEye 360; GPS; miniature CubeSats for education and research; and military/defense satellites.

Loading next visibility...
Identifier
43083, 2017-085C
Orbit
LEO
Country
Flag of CNCN / PRC
Related business
Manufacturer
SECM
Mission
Operational Defense Sigint
Bus & Motor
Unknown
Mass
~500 kg wet, ~500 kg dry
Launch date (UTC)
2017-12-25 (8 years ago)
Launch vehicle
CHANG ZHENG 2C
Launch site
Xichang Space Center, China (XSC)
Object type
Payload
Rocket body
Debris
Shape & HBR
Box + 2 Pan, 0.5 m
Radar Cross Section
0.446 m², Large (>1 m²)

Expand to show TLE details & history
Last TLE update: 1 day ago

TLE from 1 day ago
0 YAOGAN-30 J
1 43083U 17085C   26172.31787596  .00001813  00000-0  13508-3 0  9996
2 43083  34.9942 125.3898 0005057 183.6844 176.3827 15.02740635463378
Epoch: 2026-06-21T07:37Z
TLE epoch observation values (Epoch: 2026-06-21T07:37:44.482Z)
Latitude
-0.00007°
Longitude
101.43449°
Altitude
560.866 km
Speed
7.581 km/s
True Right ascension
08h 21m 33s
True Declination
0° 00' 00"
Sunlit
Object was in daylight at epoch
Visualization orbit readout
Latitude
Unknown
Longitude
Unknown
Altitude
Unknown
Speed
Unknown
Apparent Right ascension
Unknown
Apparent Declination
Unknown
Sunlit
N/A
Visualization observer readout
Local Sidereal Time
21:26:21
Azimuth
Unknown
Elevation
Unknown
Doppler factor
Unknown
Orbital elements
Apogee altitude
565.181 km
Perigee altitude
558.163 km
Semi-major axis
6,939.809 km
Eccentricity
0.00051
Inclination
34.9942°
RAAN
125.3898°
Arg. of periapsis
183.6844°
True anomaly
176.38635°
Mean anomaly
176.3827°
Eccentric anomaly
176.38453°
Mean motion
3.75424 °/min
Orbital period
95.89 mins
BSTAR
0.00013508
Loading maneuver chart data...
Computing Atmospheric mass density...
Loading historical data...
Loading historical data...
Loading historical data...
Loading historical data...
Loading historical data...
Loading historical data...
Loading historical data...
Other satellites on launch #85 in the year 2017 (2017-12-25 UTC)

Documentation

Showing up to 5 results
|